Retour au catalogue

SL-8 DEB

ActifLEO
NORAD 11752·DEBRIS·🇷🇺 Russia

Lancé Apr 3, 1980 depuis Plesetsk Cosmodrome

Loading…

Prochains Passages (prochaines 24 heures)

TLE

FraisSource: Space-Track

Époque: Sep 14, 2026, 06:32 UTC

1 11752U 80026C   26257.27280258 -.00000037  00000-0  45548-4 0  9999
2 11752  65.8420 188.6795 0030398 243.3039 271.3642 13.75351761331331

Suivez SL-8 DEB en temps réel avec AllMySat

Download on the App Store